Manchester, NH

7:08 AM EDT on July 23, 2016 (GMT -0400)
Manchester

Weather History for KMHT - February, 2013

Change the Weather History Date:

Sunday, February 10, 2013

  Actual Average Record
Temperature  
Mean Temperature 22 °F 27 °F  
Max Temperature 35 °F 36 °F 56 °F (1955)
Min Temperature 10 °F 18 °F 7 °F (2014)
Degree Days  
Heating Degree Days 42    
Cooling Degree Days 0    
Moisture  
Dew Point 0 °F    
Average Humidity 43    
Maximum Humidity 71    
Minimum Humidity 23    
Precipitation  
Precipitation 0.00 in 0.09 in 1.14 in (2005)
Month to date precipitation 0.75  
Year to date precipitation 3.77  
Snow  
Snow 0.00 in - - ()
Month to date snowfall  
Since 1 July snowfall  
Snow Depth 20.00 in    
Sea Level Pressure  
Sea Level Pressure 30.37 in    
Wind  
Wind Speed 8 mph (NNW)    
Max Wind Speed 14 mph    
Max Gust Speed 20 mph    
Visibility 10 miles    
Events      
T = Trace of Precipitation, MM = Missing Value Source: NWS Daily Summary

Daily Weather History Graph

Daily Weather History Graph

Search for Another Location

Airport or City:

Trip Planner

Search our weather history database for the weather conditions in past years. The results will help you decide how hot, cold, wet, or windy it might be!

Date:

Astronomy

Feb. 10, 2013 Rise Set
Actual Time 6:49 AM EST 5:10 PM EST
Civil Twilight 6:20 AM EST 5:40 PM EST
Nautical Twilight 5:46 AM EST 6:13 PM EST
Astronomical Twilight 5:13 AM EST 6:46 PM EST
Moon 6:35 AM EST (2/10) 6:00 PM EST (2/10)
Length of Visible Light 11h 20m
Length of Day
10h 21m
New Moon, 0% of the Moon is Illuminated
Feb 10
New Moon
Feb 17
First Quarter
Feb 25
Full
Mar 4
Last Quarter
Mar 11
New

Hourly Weather History & Observations

Time (EST) Temp. Windchill Dew Point Humidity Pressure Visibility Wind Dir Wind Speed Gust Speed Precip Events Conditions
12:53 AM 14.0 °F 2.0 °F -2.0 °F 49% 30.27 in 10.0 mi NW 9.2 mph - N/A   Clear
1:53 AM 14.0 °F 0.5 °F -2.0 °F 49% 30.28 in 10.0 mi NNW 11.5 mph - N/A   Clear
2:53 AM 12.9 °F 2.6 °F -2.9 °F 49% 30.28 in 10.0 mi NNW 6.9 mph - N/A   Clear
3:53 AM 12.9 °F -0.2 °F -4.0 °F 47% 30.30 in 10.0 mi NW 10.4 mph - N/A   Clear
4:53 AM 14.0 °F 0.5 °F -4.0 °F 45% 30.32 in 10.0 mi NW 11.5 mph - N/A   Clear
5:53 AM 12.0 °F 1.5 °F -4.0 °F 49% 30.35 in 10.0 mi NNW 6.9 mph - N/A   Clear
6:53 AM 10.9 °F 4.7 °F -5.1 °F 49% 30.38 in 10.0 mi North 3.5 mph - N/A   Clear
7:53 AM 15.1 °F 3.3 °F -4.0 °F 43% 30.40 in 10.0 mi North 9.2 mph - N/A   Clear
8:53 AM 19.0 °F 6.8 °F -5.1 °F 34% 30.42 in 10.0 mi NNW 11.5 mph 17.3 mph N/A   Clear
9:53 AM 23.0 °F 11.7 °F -4.0 °F 31% 30.43 in 10.0 mi NNW 11.5 mph - N/A   Clear
9:59 AM 24.8 °F 12.9 °F -4.0 °F 28% 30.37 in 1.8 mi NNW 13.8 mph - N/A   Haze
10:14 AM 24.8 °F 14.6 °F -2.2 °F 31% 30.37 in 10.0 mi NNW 10.4 mph 19.6 mph N/A   Clear
10:53 AM 27.0 °F 17.3 °F -2.0 °F 29% 30.43 in 10.0 mi NNW 10.4 mph - N/A   Clear
11:53 AM 30.0 °F 20.0 °F -0.9 °F 27% 30.43 in 10.0 mi NNW 12.7 mph - N/A   Clear
12:53 PM 32.0 °F 25.6 °F 1.0 °F 27% 30.40 in 10.0 mi NNW 6.9 mph - N/A   Clear
1:53 PM 34.0 °F 28.8 °F -0.9 °F 23% 30.38 in 10.0 mi NNW 5.8 mph - N/A   Clear
2:53 PM 35.1 °F 30.1 °F 1.0 °F 24% 30.37 in 10.0 mi North 5.8 mph - N/A   Clear
3:53 PM 35.1 °F 31.0 °F -0.0 °F 23% 30.38 in 10.0 mi NNW 4.6 mph - N/A   Clear
4:53 PM 30.0 °F 23.2 °F 3.9 °F 33% 30.38 in 10.0 mi North 6.9 mph - N/A   Partly Cloudy
5:53 PM 25.0 °F 20.7 °F 7.0 °F 46% 30.40 in 10.0 mi NNE 3.5 mph - N/A   Clear
6:53 PM 21.0 °F - 7.0 °F 55% 30.40 in 10.0 mi Calm Calm - N/A   Clear
7:53 PM 19.9 °F - 7.0 °F 57% 30.40 in 10.0 mi Calm Calm - N/A   Clear
8:53 PM 16.0 °F - 6.1 °F 65% 30.40 in 10.0 mi Calm Calm - N/A   Clear
9:53 PM 16.0 °F - 5.0 °F 62% 30.39 in 10.0 mi Calm Calm - N/A   Clear
10:53 PM 12.9 °F - 5.0 °F 71% 30.39 in 10.0 mi Calm Calm - N/A   Clear
11:53 PM 12.0 °F - 3.9 °F 70% 30.39 in 10.0 mi Calm Calm - N/A   Clear